Regional Weather Roundup
Issued by NWS Goodland, KS

Home | Current Version | Previous Version | Text Only | Print | Product List | Glossary Off
Versions: 1 2 3 4 5 6 7 8 9 10 11 12 13 14 15 16 17 18 19 20 21 22 23 24 25 26 27 28 29 30 31 32 33 34 35 36 37 38 39 40 41 42 43 44 45 46 47 48 49 50

000
ASUS43 KGLD 040908
RWRGLD

GOODLAND FORECAST AREA HOURLY WEATHER ROUNDUP
NATIONAL WEATHER SERVICE GOODLAND KS
300 AM MDT MON MAY 04 2015

...OFFICIAL OBSERVATIONS...

CITY           SKY/WX    TMP DP  RH WIND       PRES   REMARKS
GOODLAND KS    LGT RAIN  55  44  66 NE12      30.01F
HILL CITY KS   CLOUDY    61  46  57 N9        29.97F
IMPERIAL NEB   CLOUDY    50  38  63 NE8       30.05F
MCCOOK NEB     CLOUDY    58  38  47 NE14      30.00F
AKRON CO       CLOUDY    50  40  68 E9        30.08S
BURLINGTON CO  LGT RAIN  53  47  79 NE9       30.05R
LIMON CO       CLOUDY    52  45  77 CALM      30.08R
$$

...UNOFFICIAL OBSERVATIONS...

CITY           SKY/WX    TMP DP  RH WIND       PRES   REMARKS
COLBY KS       DRIZZLE   57  50  77 N12       29.99S
GOVE KS          N/A     60  32  34 MISG        N/A
LENORA KS        N/A     57  32  39 MISG        N/A
NORTON KS      CLEAR     57  39  51 N18G25    29.95
SHARON SPRINGS   N/A     58  53  85 MISG        N/A
KIT CARSON CO    N/A     54  50  87 MISG        N/A
YUMA CO          N/A     53  39  59 E6          N/A
$$



USA.gov is the U.S. government's official web portal to all federal, state and local government web resources and services.